This is the latest recevied weather packets stored in our database for station/object EA7RX-4. If no packets are shown the sender has not sent any weather packets the latest 10 day(s).
| Time | Temp. | Humidity | Pressure | Rain* | Wind** | Luminosity | Snow |
|---|---|---|---|---|---|---|---|
| 1787732403 | 20° C | 50% | 1012 hPa | 0 mm | - | 97 W/m² | - |
| 1787731803 | 19.44° C | 52% | 1012 hPa | 0 mm | - | 155 W/m² | - |
| 1787731203 | 19.44° C | 54% | 1012.1 hPa | 0 mm | - | 165 W/m² | - |
| 1787730603 | 18.33° C | 55% | 1012.2 hPa | 0 mm | - | 172 W/m² | - |
| 1787730003 | 18.33° C | 57% | 1012 hPa | 0 mm | - | 266 W/m² | - |
| 1787729403 | 17.78° C | 58% | 1012.2 hPa | 0 mm | - | 122 W/m² | - |
| 1787728803 | 17.78° C | 58% | 1012 hPa | 0 mm | - | 100 W/m² | - |
| 1787728203 | 17.22° C | 59% | 1012.2 hPa | 0 mm | - | 107 W/m² | - |
| 1787727603 | 17.22° C | 59% | 1012.4 hPa | 0 mm | - | 88 W/m² | - |
| 1787727003 | 17.22° C | 58% | 1012.2 hPa | 0 mm | - | 102 W/m² | - |
| 1787726403 | 16.67° C | 59% | 1012 hPa | 0 mm | - | 116 W/m² | - |
| 1787725803 | 16.67° C | 59% | 1012.1 hPa | 0 mm | - | 59 W/m² | - |
| 1787725203 | 16.67° C | 60% | 1012.1 hPa | 0 mm | - | 40 W/m² | - |
| 1787724603 | 16.11° C | 61% | 1012.2 hPa | 0 mm | - | 33 W/m² | - |
| 1787724003 | 16.11° C | 62% | 1012.2 hPa | 0 mm | - | 17 W/m² | - |
| 1787723403 | 16.11° C | 61% | 1012.2 hPa | 0 mm | - | 13 W/m² | - |
| 1787722803 | 16.67° C | 60% | 1012 hPa | 0 mm | - | 4 W/m² | - |
| 1787722203 | 16.67° C | 59% | 1011.8 hPa | 0 mm | - | 1 W/m² | - |
| 1787721603 | 16.67° C | 59% | 1012 hPa | 0 mm | - | 0 W/m² | - |
| 1787721003 | 16.67° C | 59% | 1012 hPa | 0 mm | - | 0 W/m² | - |
| 1787720403 | 16.11° C | 61% | 1012 hPa | 0 mm | - | 0 W/m² | - |
| 1787719803 | 16.67° C | 59% | 1012 hPa | 0 mm | - | 0 W/m² | - |
| 1787719203 | 17.22° C | 58% | 1011.9 hPa | 0 mm | - | 0 W/m² | - |
| 1787718603 | 17.22° C | 57% | 1012.1 hPa | 0 mm | - | 0 W/m² | - |
| 1787718003 | 17.22° C | 57% | 1012 hPa | 0 mm | - | 0 W/m² | - |
* Rain latest hour (hover to see other rain measurements)
** Current wind speed in m/s (hover to see current wind gust speed)